WT9M-8 Weather Reports


Display with metric or nautical units.
time (UTC)temp
F
wind
direction
speed
MPH
gust
MPH
rain 1hr
in
rain 24hr
in
rain mn
in
humidity
%
barometer
mb
20260505173017 62 228 8.0 17.0 0.00 0.00 0.00 38 1009.4
20260505172034 61 222 5.0 11.0 0.00 0.00 0.00 39 1009.4
20260505171110 60 248 6.0 14.0 0.00 0.00 0.00 39 1009.6
20260505170027 59 236 4.0 8.0 0.00 0.00 0.00 38 1009.7
20260505165044 59 227 6.0 18.0 0.00 0.00 0.00 38 1009.7
20260505164100 58 246 5.0 13.0 0.00 0.00 0.00 36 1009.7
20260505163017 59 271 6.0 15.0 0.00 0.00 0.00 36 1009.7
20260505162036 60 267 5.0 14.0 0.00 0.00 0.00 37 1009.7
20260505161031 58 259 5.0 11.0 0.00 0.00 0.00 37 1009.6
20260505153019 57 247 4.0 10.0 0.00 0.00 0.00 41 1009.2
20260505152114 56 270 6.0 13.0 0.00 0.00 0.00 41 1009.3
20260505151032 56 261 5.0 11.0 0.00 0.00 0.00 42 1009.3
20260505125025 47 270 2.0 7.0 0.00 0.00 0.00 73 1009.1
20260505124021 46 247 1.0 6.0 0.00 0.00 0.00 78 1009.0
20260505123037 43 228 2.0 4.0 0.00 0.00 0.00 82 1008.9
20260505122033 39 70 1.0 1.0 0.00 0.00 0.00 84 1008.8
20260505121030 35 71 2.0 2.0 0.00 0.00 0.00 86 1008.5
20260505120027 32 74 2.0 3.0 0.00 0.00 0.00 84 1008.2
20260505115024 31 75 2.0 3.0 0.00 0.00 0.00 83 1008.0
20260505114020 30 0.0 0.0 0.00 0.00 0.00 81 1007.6
20260505113017 30 0.0 0.0 0.00 0.00 0.00 80 1007.2
20260505112034 30 0.0 0.0 0.00 0.00 0.00 80 1007.0
20260505111052 31 0.0 0.0 0.00 0.00 0.00 80 1007.1
20260505102035 32 74 2.0 3.0 0.00 0.00 0.00 79 1007.0
20260505101030 33 77 2.0 2.0 0.00 0.00 0.00 78 1007.0
20260505100027 33 74 2.0 3.0 0.00 0.00 0.00 78 1007.0
20260505095025 34 85 2.0 2.0 0.00 0.00 0.00 77 1006.9
20260505094020 34 79 2.0 3.0 0.00 0.00 0.00 74 1006.6
20260505093017 35 88 1.0 2.0 0.00 0.00 0.00 73 1006.5
20260505092033 36 74 2.0 3.0 0.00 0.00 0.00 73 1006.4
20260505091030 37 75 2.0 2.0 0.00 0.00 0.00 71 1006.4
20260505090027 37 80 2.0 3.0 0.00 0.00 0.00 70 1006.1
20260505085024 38 87 2.0 2.0 0.00 0.00 0.00 71 1006.0
20260505084021 38 84 2.0 3.0 0.00 0.00 0.00 70 1005.9
20260505083037 38 77 2.0 3.0 0.00 0.00 0.00 68 1005.8
20260505082055 38 91 1.0 2.0 0.00 0.00 0.00 64 1005.6
20260505081032 39 82 1.0 2.0 0.00 0.00 0.00 64 1005.3
20260505080027 40 84 1.0 2.0 0.00 0.00 0.00 62 1005.1
20260505075024 40 73 1.0 2.0 0.00 0.00 0.00 60 1005.1
20260505074021 41 0.0 0.0 0.00 0.00 0.00 58 1005.0
20260505073017 42 0.0 0.0 0.00 0.00 0.00 57 1005.0
20260505072034 43 210 0.0 1.0 0.00 0.00 0.00 56 1005.1
20260505071032 44 212 1.0 2.0 0.00 0.00 0.00 55 1005.2
20260505070047 45 240 1.0 3.0 0.00 0.00 0.00 53 1005.2
20260505065023 45 254 1.0 4.0 0.00 0.00 0.00 53 1005.3
20260505064020 46 219 1.0 2.0 0.00 0.00 0.00 52 1005.4
20260505063037 46 268 3.0 9.0 0.00 0.00 0.00 52 1005.4
20260505062054 47 252 3.0 8.0 0.00 0.00 0.00 51 1005.3
20260505061049 47 270 4.0 11.0 0.00 0.00 0.00 51 1005.3
20260505060026 48 258 4.0 11.0 0.00 0.00 0.00 51 1005.4
20260505055023 48 245 3.0 8.0 0.00 0.00 0.00 51 1005.1
20260505054019 49 265 3.0 9.0 0.00 0.00 0.00 50 1005.0
20260505053016 50 244 5.0 11.0 0.00 0.00 0.00 49 1004.8
20260505052033 50 264 5.0 10.0 0.00 0.00 0.00 50 1004.7
20260505051030 50 249 3.0 7.0 0.00 0.00 0.00 50 1004.4
20260505041023 52 276 5.0 11.0 0.00 0.00 0.00 50 1003.8
20260505040021 52 268 3.0 9.0 0.00 0.00 0.00 49 1003.5
20260505035018 53 267 4.0 11.0 0.00 0.00 0.00 49 1003.4
20260505034034 53 262 5.0 15.0 0.00 0.00 0.00 49 1003.1
20260505033030 54 261 4.0 14.0 0.00 0.00 0.00 48 1002.9
20260505030031 54 278 5.0 14.0 0.00 0.00 0.00 47 1002.6
20260505025028 55 255 3.0 7.0 0.00 0.00 0.00 46 1002.3
20260505024024 55 263 4.0 8.0 0.00 0.00 0.00 46 1002.0
20260505023041 56 263 4.0 9.0 0.00 0.00 0.00 45 1001.8
20260505022059 56 251 4.0 13.0 0.00 0.00 0.00 45 1001.6
20260505021034 56 271 4.0 11.0 0.00 0.00 0.00 44 1001.1
20260505020031 56 258 4.0 8.0 0.00 0.00 0.00 44 1000.9
20260505015108 56 256 4.0 15.0 0.00 0.00 0.00 43 1000.7
20260505014024 57 266 3.0 6.0 0.00 0.00 0.00 42 1000.4
20260505013021 58 266 3.0 10.0 0.00 0.00 0.00 42 1000.2
20260505012037 58 263 5.0 19.0 0.00 0.00 0.00 42 1000.0
20260505011035 58 265 4.0 8.0 0.00 0.00 0.00 41 1000.2
20260505010031 59 256 4.0 9.0 0.00 0.00 0.00 40 1000.3
20260505005028 60 245 6.0 17.0 0.00 0.00 0.00 39 1000.5
20260505004024 61 260 6.0 16.0 0.00 0.00 0.00 37 1000.4
20260505003021 61 261 5.0 16.0 0.00 0.00 0.00 36 1000.2
20260505002017 61 268 7.0 18.0 0.00 0.00 0.00 37 1000.1
20260505001034 62 256 5.0 15.0 0.00 0.00 0.00 38 999.6
20260505000031 63 248 4.0 10.0 0.00 0.00 0.00 38 999.5
20260504235028 63 244 4.0 9.0 0.00 0.00 0.00 38 999.4
20260504234024 64 250 7.0 18.0 0.00 0.00 0.00 38 999.3
20260504233041 64 260 4.0 9.0 0.00 0.00 0.00 39 999.4
20260504232017 64 252 4.0 10.0 0.00 0.00 0.00 38 999.2
20260504231035 65 267 5.0 14.0 0.00 0.00 0.00 38 999.1
20260504230051 65 259 5.0 11.0 0.00 0.00 0.00 37 999.1
20260504225109 66 242 8.0 15.0 0.00 0.00 0.00 36 999.1
20260504224024 67 250 6.0 15.0 0.00 0.00 0.00 37 998.8
20260504223022 68 264 4.0 10.0 0.00 0.00 0.00 35 998.8
20260504222017 69 265 5.0 13.0 0.00 0.00 0.00 34 998.8
20260504221034 70 243 7.0 18.0 0.00 0.00 0.00 33 998.4
20260504220031 71 257 6.0 11.0 0.00 0.00 0.00 33 998.3
20260504215027 73 251 8.0 18.0 0.00 0.00 0.00 33 998.1
20260504214026 74 269 8.0 16.0 0.00 0.00 0.00 32 997.8
20260504213020 74 269 6.0 13.0 0.00 0.00 0.00 35 997.7
20260504212017 75 277 8.0 22.0 0.00 0.00 0.00 35 997.7
20260504211034 75 266 7.0 14.0 0.00 0.00 0.00 36 997.4
20260504210030 76 251 6.0 19.0 0.00 0.00 0.00 36 997.4
20260504205027 76 261 6.0 11.0 0.00 0.00 0.00 36 997.2
20260504204024 77 242 7.0 23.0 0.00 0.00 0.00 36 997.3
20260504203021 78 263 6.0 15.0 0.00 0.00 0.00 36 997.2
20260504202017 79 250 8.0 16.0 0.00 0.00 0.00 37 997.0
20260504201034 80 277 7.0 15.0 0.00 0.00 0.00 37 996.8
20260504200030 81 261 7.0 14.0 0.00 0.00 0.00 37 996.8
20260504195027 82 240 11.0 25.0 0.00 0.00 0.00 36 996.7
20260504194024 81 269 7.0 13.0 0.00 0.00 0.00 38 996.7
20260504193020 82 263 9.0 16.0 0.00 0.00 0.00 37 996.7
20260504192017 81 252 6.0 18.0 0.00 0.00 0.00 37 996.5
20260504191034 81 281 8.0 18.0 0.00 0.00 0.00 38 996.5
20260504190030 81 228 9.0 22.0 0.00 0.00 0.00 38 996.7
20260504185027 80 234 12.0 26.0 0.00 0.00 0.00 37 996.7
20260504184024 80 242 10.0 29.0 0.00 0.00 0.00 36 996.6
20260504183020 81 264 10.0 18.0 0.00 0.00 0.00 36 996.6
20260504182016 80 243 9.0 21.0 0.00 0.00 0.00 36 996.5
20260504181033 79 245 10.0 18.0 0.00 0.00 0.00 38 996.5
20260504180030 79 223 11.0 25.0 0.00 0.00 0.00 36 996.4
20260504175026 79 265 9.0 19.0 0.00 0.00 0.00 36 996.4
20260504174023 77 239 12.0 21.0 0.00 0.00 0.00 38 996.7